Location: Dammartin
(48.9032°N, 1.6195°E)
Time: 14:31:38
(UTC+00:00)

FENGYUN 1C DEB - Visible Passes

Search period start: 23 February 2024 00:00
Search period end: 04 March 2024 00:00
Orbit: 784 x 852 km, 98.6° (Epoch: 22 February)

Date Brightness Start Highest point End Pass type
(mag) Time Alt. Az. Time Alt. Az. Time Alt. Az.
23 Feb ? 05:46:36 10° NE 05:50:49 22° E 05:54:59 10° SE visible
23 Feb ? 18:52:59 10° SSW 18:57:26 28° W 19:02:00 10° NW visible
24 Feb ? 05:26:08 10° NE 05:29:08 15° E 05:32:09 10° ESE visible
24 Feb ? 18:30:56 10° SSW 18:35:52 41° W 18:40:56 10° NNW visible
25 Feb ? 18:09:12 10° S 18:14:23 61° WSW 18:19:44 10° NNW visible
26 Feb ? 19:31:03 10° WSW 19:33:50 14° W 19:36:39 10° NW visible
27 Feb ? 06:00:48 10° NE 06:05:32 28° E 06:10:15 10° SSE visible
27 Feb ? 19:08:09 10° SW 19:12:08 21° W 19:16:12 10° NW visible
28 Feb ? 05:39:59 10° NE 05:43:55 19° E 05:47:50 10° SE visible
28 Feb ? 18:45:51 10° SSW 18:50:31 31° W 18:55:18 10° NNW visible
29 Feb ? 05:19:45 10° ENE 05:22:13 13° E 05:24:40 10° ESE visible
29 Feb ? 18:23:53 10° S 18:28:58 47° W 18:34:11 10° NNW visible
01 Mar ? 18:02:13 10° S 18:07:30 69° WSW 18:12:55 10° NNW visible
01 Mar ? 19:47:35 10° W 19:48:35 10° W 19:49:35 10° WNW visible
02 Mar ? 19:23:33 10° SW 19:26:50 16° W 19:30:11 10° NW visible
03 Mar ? 05:54:04 10° NE 05:58:36 25° E 06:03:07 10° SSE visible
03 Mar ? 19:00:52 10° SW 19:05:09 24° W 19:09:32 10° NW visible
